User: anonymous
Location: Granada
(37.1830°N, 3.6000°W)
Time: 08:41:58
(UTC+02:00)
Language:

Iridium 70 - Orbit

View from above orbital plane
View from above orbital plane
View from above satellite
View from above satellite

Ground track
Ground track

The orbit data is extracted from the following two-line orbital elements,

1 25342U 98032A   14244.26994785  .00000207  00000-0  66682-4 0  9321
2 25342 086.3947 290.5103 0002517 109.1177 295.1223 14.34217255852919
Epoch (UTC): 01 September 2014 06:28:43
Eccentricity: 0.0002517
inclination: 86.3947°
perigee height: 776 km
apogee height: 779 km
right ascension of ascending node: 290.5103°
argument of perigee: 109.1177°
revolutions per day: 14.34217255
mean anomaly at epoch: 295.1223°
orbit number at epoch: 85291

The dashed part of the orbit path shows where the satellite is in the earth's shadow,  

DLR